Flag for Isle of Man Weather past 2 weeks in Ramsey, Isle of Man

Now
45 °F

Passing clouds.


Feels Like: 37 °F
Forecast: 42 / 47 °F
Wind: 20 mph from Northwest

Location: Isle Of Man / Ronaldsway Airport

Current Time: Dec 25, 2014 at 12:12:18 AM

Latest Report: Dec 24, 2014 at 11:50 PM


Visibility: N/A

Pressure: 30.15 "Hg

Humidity: 76%

Dew point: 37 °F

Location of RamseyLocation

Historic Weather in Ramsey — Graph

°F

Ramsey temperature yesterday

Maximum temperature yesterday: 46 °F (at 1:50 AM)
Minimum temperature yesterday: 43 °F (at 6:20 AM)
Average temperature yesterday: 45 °F

Past Weeks' High & Low Weather Summary

 TemperatureHumidityPressure
High55 °F (Dec 18, 9:20 AM)100% (Dec 11, 9:50 PM)30.33 "Hg (Dec 11, 9:50 PM)
Low36 °F (Dec 12, 1:50 AM)50% (Dec 14, 5:20 PM)29.21 "Hg (Dec 12, 1:50 AM)
Average47 °F80%29.75 "Hg
* Reported Dec 9 10:50 PM — Dec 24 10:50 PM, Ramsey, Weather by CustomWeather, © 2014

Note: Actual official high and low records may vary slightly from our data, if they occured in-between our weather recording intervals... More about our weather records

Advertising

Ramsey weather history for previous 24 hours

 ConditionsComfort  
Time TempWeatherWind HumidityBarometerVisibility
10:50 PM
Dec 24
45 °FPassing clouds.20 mph76%30.12 "HgN/A
9:50 PM45 °FPassing clouds.20 mph76%30.12 "HgN/A
8:50 PM46 °FPassing clouds.21 mph71%30.09 "HgN/A
7:50 PM46 °FPassing clouds.20 mph71%30.09 "HgN/A
6:50 PM46 °FPartly cloudy.18 mph71%30.07 "HgN/A
6:20 PM46 °FPassing clouds.16 mph71%30.04 "HgN/A
5:50 PM46 °FPassing clouds.21 mph71%30.04 "HgN/A
5:20 PM46 °FPassing clouds.18 mph71%30.04 "HgN/A
4:50 PM46 °FPartly cloudy.17 mph71%30.04 "HgN/A
4:20 PM46 °FPassing clouds.20 mph71%30.01 "HgN/A
3:50 PM46 °FPartly sunny.20 mph71%30.01 "HgN/A
3:20 PM46 °FScattered clouds.22 mph71%30.01 "HgN/A
2:20 PM46 °FPassing clouds.22 mph71%29.98 "HgN/A
1:50 PM45 °FPassing clouds.21 mph76%29.98 "HgN/A
1:20 PM45 °FPassing clouds.21 mph76%29.98 "HgN/A
12:50 PM45 °FPassing clouds.23 mph76%29.98 "HgN/A
12:20 PM45 °FPassing clouds.22 mph76%29.98 "HgN/A
11:50 AM45 °FPassing clouds.22 mph76%29.95 "HgN/A
11:20 AM45 °FPassing clouds.21 mph76%29.95 "HgN/A
10:50 AM45 °FPassing clouds.22 mph76%29.95 "HgN/A
10:20 AM43 °FPassing clouds.22 mph81%29.95 "HgN/A
9:50 AM45 °FPassing clouds.21 mph71%29.95 "HgN/A
9:20 AM43 °FPassing clouds.21 mph76%29.92 "HgN/A
8:20 AM43 °FPassing clouds.16 mph76%29.92 "HgN/A
7:50 AM43 °FPassing clouds.16 mph76%29.92 "HgN/A
7:20 AM43 °FPassing clouds.15 mph76%29.89 "HgN/A
6:50 AM43 °FPassing clouds.16 mph76%29.89 "HgN/A
6:20 AM43 °FPassing clouds.16 mph81%29.89 "HgN/A
5:50 AM45 °FPassing clouds.16 mph66%29.86 "HgN/A
5:20 AM45 °FPassing clouds.18 mph66%29.86 "HgN/A
4:50 AM45 °FPassing clouds.17 mph66%29.86 "HgN/A
3:50 AM45 °FPassing clouds.17 mph71%29.86 "HgN/A
1:50 AM46 °FPassing clouds.16 mph71%29.80 "HgN/A
Weather by CustomWeather, © 2014

See weather overviewHow to use our weather pages